Regional Weather Roundup
Issued by NWS Mt. Holly, NJ

Home | Current Version | Previous Version | Text Only | Print | Product List | Glossary On
Versions: 1 2 3 4 5 6 7 8 9 10 11 12 13 14 15 16 17 18 19 20 21 22 23 24 25 26 27 28
000
ASUS41 KPHI 182312
RWRPHI

REGIONAL WEATHER ROUNDUP
NATIONAL WEATHER SERVICE MOUNT HOLLY NJ
700 PM EDT WED OCT 18 2017

NOTE:  "FAIR" INDICATES FEW OR NO CLOUDS BELOW 12,000 FEET WITH NO
SIGNIFICANT WEATHER AND/OR OBSTRUCTIONS TO VISIBILITY.

 * = STATION DOES NOT REPORT PRECIPITATION (E.G. RAIN, SNOW, ETC.)
        OR FOG.

NJZ015>026-190000-
SOUTHERN NEW JERSEY

CITY           SKY/WX    TMP DP  RH WIND       PRES   REMARKS
POMONA         CLEAR     60  49  66 S5        30.30R
WILDWOOD*      CLEAR     58  51  78 S5        30.32R
MILLVILLE      CLEAR     56  52  86 CALM      30.31R
WRIGHTSTOWN    CLEAR     57  49  74 S5        30.26R
MOUNT HOLLY    CLEAR     59  49  69 CALM      30.28R
TRENTON        CLEAR     65  46  50 CALM      30.27R

$$
NJZ001>014-190000-
NORTHERN NEW JERSEY

CITY           SKY/WX    TMP DP  RH WIND       PRES   REMARKS
SUSSEX         CLEAR     58  49  72 CALM      30.26R
ANDOVER*         N/A     55  50  83 CALM      30.27R
MORRISTOWN     CLEAR     57  48  72 CALM      30.26R
NEWARK         CLEAR     66  46  48 SW8       30.26R
TETERBORO      CLEAR     66  50  56 S5        30.25R
CALDWELL       CLEAR     63  49  60 CALM      30.27R
SOMERVILLE     CLEAR     57  49  74 CALM      30.25R
ALLAIRE*       CLEAR     61  51  70 S5        30.29R
TOMS RIVER*      N/A     55  51  86 CALM      30.30R

$$
PAZ043-044-047-054-055-060>062-066>071-190000-
EASTERN PENNSYLVANIA

CITY           SKY/WX    TMP DP  RH WIND       PRES   REMARKS
PHILADELPHIA   PTCLDY    67  45  45 SW10      30.29R
NORTH PHILA    CLEAR     66  47  50 SW6       30.30R
BLUE BELL*     CLEAR     55  46  71 S3        30.30R
DOYLESTOWN     CLEAR     58  48  69 CALM      30.27R
QUAKERTOWN*    CLEAR     57  48  72 CALM      30.29R
PERKASIE*      FAIR      55  50  82 CALM      30.29R
POTTSTOWN      CLEAR     58  46  64 CALM      30.30R
LANCASTER      CLEAR     64  47  53 SW6       30.28R
COATESVILLE    CLEAR     61  46  59 CALM      30.31R
READING        CLEAR     64  46  52 CALM      30.27R
ALLENTOWN      CLEAR     62  44  51 SW5       30.27R
MOUNT POCONO   CLEAR     57  45  64 SW5       30.28R
HAZLETON       CLEAR     54  34  47 CALM      30.31R
LEHIGHTON      FAIR      54  46  76 CALM      30.28R
WILKES BARRE   CLEAR     59  44  57 S3        30.27R

$$
DEZALL-MDZ008-012-015-019-020-190000-
DELAWARE AND EASTERN MARYLAND

CITY           SKY/WX    TMP DP  RH WIND       PRES   REMARKS
WILMINGTON     CLEAR     63  46  54 SW5       30.30R
DOVER          CLEAR     62  45  54 SW5       30.29R
GEORGETOWN     CLEAR     62  45  53 W5        30.32R
EASTON         CLEAR     61  45  55 SW7       30.35R
ABERDEEN       CLEAR     53  49  84 CALM      30.30R
PATUXENT       PTCLDY    58  46  64 S5        30.31S
OCEAN CITY     CLEAR     56  44  64 SW5       30.33R
WALLOPS ISLAND CLEAR     56  45  66 CALM      30.33S
CAMBRIDGE      CLEAR     57  45  62 CALM      30.32S
SALISBURY      CLEAR     56  50  80 SW5       30.32R

$$
PAZ001-021-NYZ056-072-MDZ011-DCZ001-190000-
OTHER NEARBY LOCATIONS

CITY           SKY/WX    TMP DP  RH WIND       PRES   REMARKS
HARRISBURG     PTCLDY    62  49  62 SW8       30.26S
STATE COLLEGE  PTCLDY    61  43  51 S7        30.26R
WILLIAMSPORT   CLEAR     61  48  62 CALM      30.23R
BINGHAMTON     CLEAR     61  42  49 S3        30.25R
NEW YORK CITY  CLEAR     65  49  56 VRB3      30.29R
BALTIMORE      PTCLDY    58  47  66 SW3       30.29S
WASHINGTON DC  PTCLDY    63  47  55 S8        30.30F

$$




USA.gov is the U.S. government's official web portal to all federal, state and local government web resources and services.